CXA021 CYUL-KMYR

Flight info

Callsign CXA021
Flight time 1h 54m
Altitude 32000
Route FAWNS DCT BUGSY DCT RKA DCT SUZIE DCT RIC DCT TYI DCT ELLDE Q97 YURCK DCT ZEVIM
Aircraft MD11/H-SDE1E2E3FGHIJ2J3J4J5M1RWXY/LB1D1

Departure

Time 2026-04-16 22:55
Airport Montreal / Pierre Elliott Trudeau International Airport (CYUL)

Arrival

Time 2026-04-17 00:50
Airport Myrtle Beach International Airport (KMYR)
Time Latitude Longitude Altitude Speed Heading
2026-04-16 22:14 45.45951 -73.76179 110 ft 0 kts 239°
2026-04-16 22:42 45.45953 -73.76176 110 ft 3 kts 239°
2026-04-16 22:42 45.45965 -73.76144 109 ft 4 kts 250°
2026-04-16 22:42 45.45971 -73.76108 111 ft 4 kts 270°
2026-04-16 22:43 45.45968 -73.76076 109 ft 4 kts 306°
2026-04-16 22:43 45.45956 -73.76059 108 ft 3 kts 355°
2026-04-16 22:43 45.45949 -73.76058 110 ft 0 kts 358°
2026-04-16 22:46 45.45951 -73.76058 109 ft 2 kts 358°
2026-04-16 22:47 45.45975 -73.76059 110 ft 2 kts 358°
2026-04-16 22:47 45.45978 -73.76059 111 ft 1 kts 358°
2026-04-16 22:47 45.45997 -73.76061 110 ft 4 kts 356°
2026-04-16 22:47 45.46015 -73.76067 111 ft 4 kts 345°
2026-04-16 22:48 45.46047 -73.76094 110 ft 3 kts 310°
2026-04-16 22:48 45.46047 -73.76133 108 ft 6 kts 269°
2026-04-16 22:48 45.46045 -73.76176 109 ft 3 kts 267°
2026-04-16 22:48 45.46044 -73.76191 109 ft 2 kts 265°
2026-04-16 22:49 45.46040 -73.76218 107 ft 1 kts 245°
2026-04-16 22:49 45.46032 -73.76232 108 ft 2 kts 233°
2026-04-16 22:49 45.46030 -73.76236 109 ft 0 kts 233°
2026-04-16 22:51 45.46020 -73.76251 113 ft 5 kts 228°
2026-04-16 22:51 45.46001 -73.76296 110 ft 3 kts 249°
2026-04-16 22:51 45.46000 -73.76319 110 ft 2 kts 273°
2026-04-16 22:52 45.46001 -73.76324 110 ft 0 kts 280°
2026-04-16 22:52 45.46004 -73.76331 110 ft 1 kts 292°
2026-04-16 22:52 45.46013 -73.76351 109 ft 5 kts 302°
2026-04-16 22:52 45.46020 -73.76365 110 ft 0 kts 309°
2026-04-16 22:53 45.46046 -73.76401 110 ft 9 kts 323°
2026-04-16 22:53 45.46090 -73.76427 111 ft 3 kts 344°
2026-04-16 22:53 45.46095 -73.76429 111 ft 0 kts 346°
2026-04-16 22:54 45.46110 -73.76434 112 ft 5 kts 346°
2026-04-16 22:54 45.46141 -73.76433 111 ft 10 kts 12°
2026-04-16 22:54 45.46275 -73.76284 110 ft 54 kts 43°
2026-04-16 22:55 45.46764 -73.75647 113 ft 131 kts 43°
2026-04-16 22:55 45.47552 -73.74604 231 ft 174 kts 43°
2026-04-16 22:55 45.48446 -73.73387 880 ft 172 kts 43°
2026-04-16 22:55 45.49351 -73.72183 1683 ft 183 kts 43°
2026-04-16 22:56 45.50280 -73.70951 2389 ft 189 kts 42°
2026-04-16 22:56 45.51241 -73.69669 3094 ft 191 kts 41°
2026-04-16 22:56 45.52153 -73.68206 3493 ft 212 kts 60°
2026-04-16 22:56 45.52509 -73.66021 3670 ft 244 kts 94°
2026-04-16 22:57 45.52005 -73.63614 3848 ft 269 kts 123°
2026-04-16 22:57 45.50661 -73.61743 4531 ft 273 kts 153°
2026-04-16 22:57 45.48861 -73.60954 5414 ft 273 kts 180°
2026-04-16 22:57 45.47007 -73.61374 6255 ft 272 kts 207°
2026-04-16 22:58 45.45467 -73.62885 7027 ft 270 kts 227°
2026-04-16 22:58 45.44171 -73.64844 7878 ft 272 kts 231°
2026-04-16 22:58 45.42896 -73.66863 8707 ft 275 kts 232°
2026-04-16 22:58 45.41613 -73.68896 9595 ft 277 kts 232°
2026-04-16 22:59 45.40315 -73.70952 10294 ft 284 kts 233°
2026-04-16 22:59 45.38936 -73.73155 10418 ft 312 kts 233°
2026-04-16 22:59 45.37431 -73.75561 10603 ft 336 kts 232°
2026-04-16 22:59 45.35862 -73.78055 11376 ft 339 kts 232°
2026-04-16 23:00 45.34226 -73.80491 12208 ft 343 kts 229°
2026-04-16 23:00 45.32424 -73.82747 13073 ft 347 kts 224°
2026-04-16 23:00 45.30469 -73.84808 13821 ft 352 kts 220°
2026-04-16 23:00 45.28430 -73.86697 14465 ft 357 kts 218°
2026-04-16 23:01 45.26285 -73.88521 15092 ft 362 kts 216°
2026-04-16 23:01 45.24085 -73.90294 15674 ft 366 kts 215°
2026-04-16 23:01 45.21846 -73.92045 16299 ft 369 kts 215°
2026-04-16 23:01 45.19579 -73.93791 16887 ft 373 kts 215°
2026-04-16 23:02 45.17285 -73.95544 17475 ft 376 kts 214°
2026-04-16 23:02 45.14969 -73.97306 18056 ft 379 kts 214°
2026-04-16 23:02 45.12640 -73.99076 18552 ft 382 kts 214°
2026-04-16 23:02 45.10286 -74.00862 19056 ft 385 kts 215°
2026-04-16 23:03 45.07915 -74.02659 19538 ft 387 kts 215°
2026-04-16 23:03 45.05534 -74.04462 19998 ft 390 kts 215°
2026-04-16 23:03 45.03135 -74.06278 20458 ft 392 kts 215°
2026-04-16 23:03 45.00708 -74.08070 20896 ft 397 kts 211°
2026-04-16 23:04 44.98042 -74.09326 21358 ft 410 kts 200°
2026-04-16 23:04 44.95207 -74.10060 21823 ft 418 kts 195°
2026-04-16 23:04 44.92302 -74.10580 22310 ft 422 kts 194°
2026-04-16 23:04 44.89371 -74.11046 22771 ft 426 kts 194°
2026-04-16 23:05 44.86415 -74.11525 23271 ft 429 kts 194°
2026-04-16 23:05 44.83448 -74.12032 23721 ft 431 kts 195°
2026-04-16 23:05 44.80465 -74.12567 24159 ft 433 kts 195°
2026-04-16 23:05 44.77474 -74.13120 24618 ft 435 kts 195°
2026-04-16 23:06 44.74466 -74.13684 25094 ft 437 kts 195°
2026-04-16 23:06 44.71461 -74.14339 25490 ft 436 kts 200°
2026-04-16 23:06 44.68545 -74.15438 25940 ft 433 kts 205°
2026-04-16 23:06 44.65703 -74.16807 26377 ft 433 kts 207°
2026-04-16 23:07 44.62874 -74.18289 26818 ft 434 kts 208°
2026-04-16 23:07 44.60038 -74.19799 27228 ft 438 kts 208°
2026-04-16 23:07 44.57178 -74.21308 27617 ft 441 kts 207°
2026-04-16 23:07 44.54294 -74.22807 28052 ft 444 kts 207°
2026-04-16 23:08 44.51382 -74.24301 28473 ft 447 kts 207°
2026-04-16 23:08 44.48449 -74.25794 28882 ft 450 kts 207°
2026-04-16 23:08 44.45501 -74.27286 29290 ft 452 kts 207°
2026-04-16 23:08 44.42543 -74.28777 29810 ft 451 kts 207°
2026-04-16 23:09 44.39588 -74.30264 30279 ft 450 kts 207°
2026-04-16 23:09 44.36683 -74.31725 30659 ft 450 kts 207°
2026-04-16 23:09 44.33747 -74.33201 31009 ft 448 kts 207°
2026-04-16 23:09 44.30821 -74.34671 31378 ft 446 kts 207°
2026-04-16 23:10 44.27900 -74.36138 31698 ft 446 kts 207°
2026-04-16 23:10 44.24987 -74.37602 31775 ft 446 kts 207°
2026-04-16 23:10 44.19094 -74.40564 31797 ft 452 kts 207°
2026-04-16 23:11 44.13171 -74.43525 31811 ft 452 kts 207°
2026-04-16 23:11 44.07248 -74.46479 31812 ft 453 kts 207°
2026-04-16 23:12 44.01316 -74.49433 31818 ft 453 kts 206°
2026-04-16 23:12 43.95381 -74.52382 31816 ft 453 kts 206°
2026-04-16 23:13 43.89444 -74.55314 31811 ft 453 kts 206°
2026-04-16 23:13 43.83499 -74.58240 31809 ft 454 kts 206°
2026-04-16 23:14 43.77551 -74.61172 31809 ft 454 kts 206°
2026-04-16 23:14 43.71595 -74.64107 31809 ft 454 kts 206°
2026-04-16 23:15 43.62701 -74.68478 31804 ft 454 kts 206°
2026-04-16 23:16 43.56741 -74.71399 31809 ft 455 kts 206°
2026-04-16 23:16 43.50777 -74.74316 31801 ft 455 kts 206°
2026-04-16 23:17 43.44814 -74.77227 31798 ft 455 kts 206°
2026-04-16 23:17 43.38853 -74.80130 31793 ft 455 kts 206°
2026-04-16 23:18 43.32888 -74.83030 31792 ft 455 kts 206°
2026-04-16 23:18 43.26921 -74.85924 31786 ft 454 kts 205°
2026-04-16 23:19 43.20958 -74.88810 31784 ft 454 kts 205°
2026-04-16 23:19 43.15000 -74.91687 31784 ft 454 kts 205°
2026-04-16 23:20 43.09037 -74.94545 31791 ft 454 kts 205°
2026-04-16 23:20 43.03080 -74.97398 31787 ft 453 kts 205°
2026-04-16 23:21 42.97139 -75.00247 31786 ft 452 kts 205°
2026-04-16 23:21 42.91202 -75.03092 31791 ft 452 kts 205°
2026-04-16 23:22 42.85263 -75.05931 31784 ft 451 kts 205°
2026-04-16 23:22 42.79343 -75.08756 31785 ft 451 kts 205°
2026-04-16 23:23 42.74421 -75.11100 31789 ft 450 kts 205°
2026-04-16 23:23 42.68511 -75.13909 31784 ft 450 kts 206°
2026-04-16 23:24 42.62607 -75.16710 31787 ft 450 kts 205°
2026-04-16 23:24 42.56696 -75.19509 31785 ft 450 kts 206°
2026-04-16 23:25 42.50727 -75.22100 31789 ft 452 kts 202°
2026-04-16 23:25 42.44662 -75.24391 31787 ft 453 kts 202°
2026-04-16 23:26 42.38628 -75.26635 31791 ft 452 kts 202°
2026-04-16 23:26 42.32574 -75.28910 31790 ft 452 kts 202°
2026-04-16 23:27 42.26520 -75.31193 31800 ft 452 kts 202°
2026-04-16 23:27 42.20471 -75.33473 31798 ft 451 kts 202°
2026-04-16 23:28 42.14423 -75.35746 31804 ft 451 kts 202°
2026-04-16 23:28 42.08378 -75.38015 31933 ft 451 kts 202°
2026-04-16 23:28 42.05393 -75.39129 31840 ft 439 kts 201°
2026-04-16 23:29 42.02467 -75.40218 31819 ft 436 kts 202°
2026-04-16 23:29 41.96630 -75.42403 31816 ft 435 kts 202°
2026-04-16 23:30 41.90801 -75.44582 31816 ft 435 kts 202°
2026-04-16 23:30 41.84976 -75.46752 31813 ft 434 kts 202°
2026-04-16 23:31 41.79154 -75.48916 31812 ft 434 kts 202°
2026-04-16 23:31 41.73325 -75.51076 31808 ft 435 kts 202°
2026-04-16 23:32 41.67498 -75.53220 31808 ft 434 kts 202°
2026-04-16 23:32 41.61668 -75.55367 31806 ft 434 kts 202°
2026-04-16 23:33 41.55847 -75.57513 31808 ft 435 kts 202°
2026-04-16 23:33 41.50014 -75.59660 31814 ft 434 kts 202°
2026-04-16 23:34 41.44184 -75.61802 31816 ft 435 kts 202°
2026-04-16 23:34 41.38352 -75.63941 31815 ft 435 kts 202°
2026-04-16 23:35 41.32519 -75.66076 31817 ft 435 kts 202°
2026-04-16 23:35 41.26676 -75.68211 31831 ft 435 kts 202°
2026-04-16 23:36 41.20830 -75.70342 31827 ft 436 kts 201°
2026-04-16 23:36 41.15023 -75.72456 31813 ft 436 kts 201°
2026-04-16 23:37 41.09178 -75.74580 31850 ft 436 kts 201°
2026-04-16 23:37 41.03330 -75.76701 31866 ft 436 kts 201°
2026-04-16 23:38 40.97484 -75.78817 31872 ft 436 kts 201°
2026-04-16 23:38 40.91630 -75.80928 31874 ft 436 kts 201°
2026-04-16 23:39 40.85783 -75.83024 31863 ft 436 kts 201°
2026-04-16 23:39 40.79924 -75.85129 31856 ft 436 kts 201°
2026-04-16 23:40 40.74073 -75.87230 31840 ft 436 kts 201°
2026-04-16 23:40 40.68217 -75.89331 31824 ft 436 kts 201°
2026-04-16 23:41 40.62357 -75.91429 31813 ft 436 kts 201°
2026-04-16 23:41 40.56495 -75.93523 31814 ft 437 kts 201°
2026-04-16 23:42 40.50637 -75.95613 31814 ft 437 kts 201°
2026-04-16 23:42 40.47701 -75.96659 32211 ft 435 kts 201°
2026-04-16 23:42 40.44784 -75.97696 32606 ft 434 kts 201°
2026-04-16 23:42 40.41871 -75.98731 32991 ft 432 kts 201°
2026-04-16 23:43 40.38985 -75.99787 33389 ft 429 kts 203°
2026-04-16 23:43 40.36153 -76.00997 33717 ft 427 kts 205°
2026-04-16 23:43 40.33359 -76.02303 33789 ft 425 kts 206°
2026-04-16 23:44 40.27827 -76.04994 33812 ft 424 kts 206°
2026-04-16 23:44 40.22297 -76.07677 33809 ft 424 kts 206°
2026-04-16 23:45 40.16757 -76.10335 33824 ft 424 kts 206°
2026-04-16 23:45 40.11217 -76.12980 33821 ft 424 kts 206°
2026-04-16 23:46 40.05675 -76.15619 33824 ft 424 kts 206°
2026-04-16 23:46 40.00135 -76.18253 33820 ft 424 kts 206°
2026-04-16 23:47 39.94592 -76.20884 33824 ft 424 kts 206°
2026-04-16 23:47 39.89050 -76.23510 33822 ft 424 kts 206°
2026-04-16 23:48 39.83542 -76.26115 33824 ft 424 kts 206°
2026-04-16 23:48 39.78005 -76.28729 33825 ft 424 kts 206°
2026-04-16 23:49 39.72458 -76.31344 33829 ft 424 kts 206°
2026-04-16 23:49 39.66881 -76.33969 33830 ft 424 kts 206°
2026-04-16 23:50 39.61340 -76.36571 33833 ft 424 kts 206°
2026-04-16 23:50 39.55790 -76.39160 33837 ft 424 kts 205°
2026-04-16 23:51 39.50234 -76.41752 33843 ft 424 kts 206°
2026-04-16 23:51 39.44684 -76.44343 33846 ft 424 kts 205°
2026-04-16 23:52 39.39164 -76.46918 33846 ft 425 kts 205°
2026-04-16 23:52 39.33608 -76.49506 33845 ft 425 kts 205°
2026-04-16 23:53 39.28045 -76.52093 33845 ft 425 kts 205°
2026-04-16 23:53 39.22481 -76.54676 33822 ft 425 kts 205°
2026-04-16 23:54 39.16912 -76.57256 33819 ft 425 kts 205°
2026-04-16 23:54 39.11337 -76.59835 33827 ft 425 kts 205°
2026-04-16 23:55 39.05765 -76.62409 33849 ft 426 kts 205°
2026-04-16 23:55 39.00187 -76.64981 33847 ft 426 kts 205°
2026-04-16 23:56 38.94610 -76.67548 33846 ft 426 kts 205°
2026-04-16 23:56 38.89032 -76.70111 33835 ft 426 kts 205°
2026-04-16 23:57 38.83453 -76.72670 33831 ft 426 kts 205°
2026-04-16 23:57 38.77863 -76.75218 33830 ft 426 kts 205°
2026-04-16 23:58 38.72284 -76.77758 33833 ft 425 kts 205°
2026-04-16 23:58 38.66705 -76.80301 33834 ft 425 kts 205°
2026-04-16 23:59 38.61136 -76.82839 33839 ft 425 kts 205°
2026-04-16 23:59 38.55565 -76.85373 33838 ft 425 kts 205°
2026-04-17 00:00 38.50033 -76.87886 33845 ft 425 kts 205°
2026-04-17 00:00 38.44470 -76.90409 33850 ft 424 kts 205°
2026-04-17 00:01 38.38902 -76.92930 33851 ft 424 kts 205°
2026-04-17 00:01 38.33335 -76.95446 33848 ft 424 kts 205°
2026-04-17 00:02 38.27771 -76.97957 33852 ft 424 kts 205°
2026-04-17 00:02 38.22213 -77.00461 33861 ft 424 kts 205°
2026-04-17 00:03 38.16657 -77.02960 33875 ft 424 kts 205°
2026-04-17 00:03 38.11103 -77.05454 33877 ft 423 kts 205°
2026-04-17 00:04 38.05542 -77.07947 33880 ft 423 kts 205°
2026-04-17 00:04 37.99988 -77.10423 33880 ft 423 kts 205°
2026-04-17 00:05 37.94429 -77.12896 33885 ft 423 kts 205°
2026-04-17 00:05 37.88871 -77.15372 33884 ft 424 kts 205°
2026-04-17 00:06 37.83307 -77.17850 33885 ft 424 kts 205°
2026-04-17 00:06 37.77779 -77.20308 33899 ft 424 kts 205°
2026-04-17 00:07 37.72215 -77.22779 33902 ft 424 kts 205°
2026-04-17 00:07 37.66649 -77.25246 33903 ft 424 kts 205°
2026-04-17 00:08 37.61081 -77.27711 33899 ft 424 kts 205°
2026-04-17 00:08 37.55506 -77.30169 33885 ft 425 kts 204°
2026-04-17 00:09 37.49737 -77.32048 33895 ft 431 kts 198°
2026-04-17 00:09 37.43848 -77.33523 33893 ft 432 kts 197°
2026-04-17 00:10 37.37955 -77.34988 33900 ft 432 kts 198°
2026-04-17 00:10 37.32069 -77.36487 33918 ft 432 kts 198°
2026-04-17 00:11 37.26179 -77.38002 33922 ft 432 kts 198°
2026-04-17 00:11 37.20283 -77.39518 33923 ft 433 kts 198°
2026-04-17 00:12 37.15382 -77.40777 33922 ft 433 kts 198°
2026-04-17 00:12 37.09481 -77.42289 33926 ft 433 kts 198°
2026-04-17 00:13 37.03575 -77.43800 33921 ft 433 kts 198°
2026-04-17 00:13 36.97664 -77.45310 33923 ft 434 kts 198°
2026-04-17 00:14 36.91752 -77.46818 33930 ft 434 kts 198°
2026-04-17 00:14 36.85837 -77.48324 33934 ft 434 kts 198°
2026-04-17 00:15 36.79909 -77.49832 33938 ft 435 kts 198°
2026-04-17 00:15 36.73978 -77.51337 33937 ft 435 kts 198°
2026-04-17 00:16 36.68040 -77.52835 33938 ft 436 kts 198°
2026-04-17 00:16 36.62092 -77.54335 33936 ft 436 kts 198°
2026-04-17 00:17 36.56139 -77.55837 33940 ft 437 kts 198°
2026-04-17 00:17 36.50184 -77.57339 33946 ft 437 kts 198°
2026-04-17 00:18 36.44215 -77.58842 33943 ft 438 kts 198°
2026-04-17 00:18 36.38241 -77.60345 33942 ft 438 kts 198°
2026-04-17 00:19 36.32266 -77.61845 33941 ft 439 kts 198°
2026-04-17 00:19 36.26273 -77.63347 33940 ft 440 kts 198°
2026-04-17 00:20 36.20275 -77.64848 33943 ft 440 kts 197°
2026-04-17 00:20 36.14270 -77.66348 33944 ft 440 kts 197°
2026-04-17 00:21 36.08253 -77.67849 33958 ft 441 kts 197°
2026-04-17 00:21 36.02270 -77.69340 33959 ft 442 kts 197°
2026-04-17 00:22 35.93480 -77.72377 33961 ft 432 kts 210°
2026-04-17 00:22 35.88166 -77.75819 33967 ft 431 kts 213°
2026-04-17 00:23 35.82909 -77.79382 33967 ft 432 kts 213°
2026-04-17 00:23 35.77611 -77.82881 33963 ft 432 kts 213°
2026-04-17 00:24 35.72290 -77.86339 33956 ft 433 kts 212°
2026-04-17 00:24 35.66957 -77.89788 33968 ft 433 kts 212°
2026-04-17 00:25 35.61617 -77.93236 33985 ft 434 kts 212°
2026-04-17 00:25 35.56274 -77.96683 33988 ft 434 kts 213°
2026-04-17 00:26 35.50925 -78.00127 33990 ft 435 kts 213°
2026-04-17 00:26 35.45729 -78.03469 33986 ft 435 kts 213°
2026-04-17 00:27 35.40362 -78.06916 33987 ft 436 kts 213°
2026-04-17 00:27 35.35027 -78.10337 33978 ft 436 kts 213°
2026-04-17 00:28 35.29638 -78.13786 33980 ft 437 kts 213°
2026-04-17 00:28 35.26972 -78.15488 33972 ft 424 kts 213°
2026-04-17 00:28 35.24391 -78.17129 33787 ft 419 kts 213°
2026-04-17 00:29 35.21806 -78.18778 33128 ft 416 kts 213°
2026-04-17 00:29 35.19232 -78.20414 32442 ft 417 kts 212°
2026-04-17 00:29 35.16647 -78.22058 31757 ft 422 kts 212°
2026-04-17 00:29 35.14046 -78.23714 31190 ft 422 kts 212°
2026-04-17 00:30 35.11427 -78.25380 30647 ft 426 kts 212°
2026-04-17 00:30 35.08791 -78.27057 30081 ft 428 kts 212°
2026-04-17 00:30 35.06141 -78.28741 29400 ft 431 kts 212°
2026-04-17 00:30 35.03475 -78.30434 28768 ft 433 kts 212°
2026-04-17 00:31 35.00796 -78.32135 28155 ft 435 kts 211°
2026-04-17 00:31 34.98098 -78.33847 27536 ft 438 kts 211°
2026-04-17 00:31 34.95398 -78.35557 26913 ft 438 kts 211°
2026-04-17 00:31 34.92700 -78.37264 26226 ft 435 kts 211°
2026-04-17 00:32 34.90028 -78.38953 25571 ft 431 kts 211°
2026-04-17 00:32 34.87381 -78.40625 24899 ft 428 kts 210°
2026-04-17 00:32 34.84745 -78.42291 24196 ft 424 kts 210°
2026-04-17 00:32 34.82138 -78.43937 23502 ft 421 kts 210°
2026-04-17 00:33 34.79550 -78.45570 22741 ft 417 kts 210°
2026-04-17 00:33 34.76987 -78.47185 22053 ft 413 kts 210°
2026-04-17 00:33 34.74452 -78.48783 21410 ft 409 kts 210°
2026-04-17 00:33 34.71937 -78.50367 20775 ft 405 kts 210°
2026-04-17 00:34 34.69449 -78.51933 20142 ft 401 kts 210°
2026-04-17 00:34 34.66980 -78.53485 19526 ft 398 kts 210°
2026-04-17 00:34 34.64532 -78.55024 18913 ft 394 kts 210°
2026-04-17 00:34 34.62107 -78.56548 18299 ft 391 kts 210°
2026-04-17 00:35 34.59703 -78.58056 17627 ft 388 kts 210°
2026-04-17 00:35 34.57313 -78.59556 16996 ft 385 kts 210°
2026-04-17 00:35 34.54939 -78.61044 16382 ft 383 kts 210°
2026-04-17 00:35 34.52583 -78.62520 15783 ft 381 kts 210°
2026-04-17 00:36 34.50233 -78.63991 15176 ft 379 kts 210°
2026-04-17 00:36 34.47899 -78.65450 14580 ft 377 kts 210°
2026-04-17 00:36 34.45571 -78.66898 13987 ft 375 kts 210°
2026-04-17 00:36 34.43255 -78.68338 13379 ft 373 kts 210°
2026-04-17 00:37 34.40959 -78.69766 12962 ft 368 kts 210°
2026-04-17 00:37 34.38678 -78.71216 12230 ft 368 kts 212°
2026-04-17 00:37 34.36541 -78.72809 11650 ft 363 kts 216°
2026-04-17 00:37 34.34462 -78.74516 11254 ft 360 kts 217°
2026-04-17 00:38 34.32422 -78.76243 11071 ft 351 kts 217°
2026-04-17 00:38 34.30472 -78.77899 10951 ft 333 kts 217°
2026-04-17 00:38 34.28622 -78.79467 10837 ft 317 kts 217°
2026-04-17 00:38 34.26856 -78.80961 10709 ft 302 kts 217°
2026-04-17 00:39 34.25170 -78.82384 10590 ft 288 kts 217°
2026-04-17 00:39 34.23543 -78.83756 10358 ft 284 kts 217°
2026-04-17 00:39 34.21929 -78.85117 9929 ft 283 kts 217°
2026-04-17 00:39 34.20301 -78.86479 9364 ft 286 kts 215°
2026-04-17 00:40 34.18479 -78.87462 8852 ft 291 kts 194°
2026-04-17 00:40 34.16447 -78.87646 8386 ft 295 kts 182°
2026-04-17 00:40 34.14393 -78.87529 7905 ft 296 kts 180°
2026-04-17 00:40 34.12337 -78.87349 7433 ft 294 kts 180°
2026-04-17 00:41 34.10337 -78.87167 6963 ft 283 kts 180°
2026-04-17 00:41 34.08396 -78.86998 6556 ft 279 kts 180°
2026-04-17 00:41 34.06458 -78.86840 6138 ft 279 kts 181°
2026-04-17 00:41 34.04518 -78.86688 5730 ft 279 kts 181°
2026-04-17 00:42 34.02582 -78.86539 5313 ft 279 kts 180°
2026-04-17 00:42 34.00650 -78.86393 4909 ft 278 kts 180°
2026-04-17 00:42 33.98724 -78.86248 4501 ft 277 kts 180°
2026-04-17 00:42 33.96847 -78.86245 4114 ft 261 kts 192°
2026-04-17 00:43 33.95188 -78.86908 3763 ft 243 kts 215°
2026-04-17 00:43 33.93949 -78.88180 3469 ft 228 kts 227°
2026-04-17 00:43 33.92913 -78.89527 3150 ft 210 kts 229°
2026-04-17 00:43 33.91982 -78.90778 2871 ft 191 kts 229°
2026-04-17 00:44 33.91148 -78.91901 2577 ft 169 kts 229°
2026-04-17 00:44 33.90396 -78.92917 2374 ft 160 kts 229°
2026-04-17 00:44 33.89659 -78.93915 2173 ft 158 kts 228°
2026-04-17 00:44 33.88936 -78.94894 2028 ft 156 kts 229°
2026-04-17 00:45 33.88192 -78.95841 1969 ft 156 kts 222°
2026-04-17 00:45 33.87298 -78.96572 1970 ft 157 kts 207°
2026-04-17 00:45 33.86242 -78.96953 1975 ft 161 kts 191°
2026-04-17 00:45 33.85118 -78.96903 1983 ft 163 kts 175°
2026-04-17 00:46 33.83999 -78.96707 1981 ft 162 kts 176°
2026-04-17 00:46 33.82878 -78.96512 1966 ft 164 kts 176°
2026-04-17 00:46 33.81753 -78.96278 1975 ft 164 kts 174°
2026-04-17 00:46 33.80632 -78.95990 1993 ft 164 kts 174°
2026-04-17 00:47 33.79514 -78.95704 1991 ft 164 kts 173°
2026-04-17 00:47 33.78391 -78.95420 1861 ft 166 kts 173°
2026-04-17 00:47 33.77273 -78.95138 1638 ft 163 kts 172°
2026-04-17 00:47 33.76177 -78.94862 1413 ft 159 kts 173°
2026-04-17 00:48 33.75093 -78.94593 1223 ft 158 kts 172°
2026-04-17 00:48 33.74016 -78.94324 1005 ft 157 kts 172°
2026-04-17 00:48 33.72966 -78.94065 784 ft 155 kts 171°
2026-04-17 00:48 33.71906 -78.93801 595 ft 158 kts 171°
2026-04-17 00:49 33.70817 -78.93532 355 ft 161 kts 170°
2026-04-17 00:49 33.69736 -78.93261 176 ft 156 kts 171°
2026-04-17 00:49 33.68706 -78.93002 40 ft 138 kts 167°
2026-04-17 00:49 33.67898 -78.92822 39 ft 97 kts 173°
2026-04-17 00:50 33.67365 -78.92687 38 ft 61 kts 169°
2026-04-17 00:50 33.67072 -78.92614 39 ft 26 kts 168°
2026-04-17 00:50 33.67010 -78.92599 40 ft 0 kts 168°
2026-04-17 00:51 33.66990 -78.92594 40 ft 6 kts 168°
2026-04-17 00:51 33.66925 -78.92577 41 ft 13 kts 168°
2026-04-17 00:51 33.66816 -78.92549 40 ft 16 kts 168°
2026-04-17 00:51 33.66711 -78.92559 39 ft 10 kts 229°
2026-04-17 00:52 33.66688 -78.92625 39 ft 8 kts 258°
2026-04-17 00:52 33.66678 -78.92685 39 ft 7 kts 258°
2026-04-17 00:52 33.66668 -78.92750 39 ft 10 kts 262°
2026-04-17 00:52 33.66687 -78.92848 39 ft 15 kts 307°
2026-04-17 00:53 33.66783 -78.92899 39 ft 15 kts 347°
2026-04-17 00:53 33.66882 -78.92925 39 ft 15 kts 347°
2026-04-17 00:53 33.67002 -78.92957 39 ft 20 kts 347°
2026-04-17 00:53 33.67144 -78.92994 39 ft 19 kts 348°
2026-04-17 00:54 33.67204 -78.93036 36 ft 7 kts 299°
2026-04-17 00:54 33.67219 -78.93112 37 ft 10 kts 289°
2026-04-17 00:54 33.67253 -78.93147 39 ft 3 kts 335°
2026-04-17 00:54 33.67286 -78.93160 39 ft 4 kts 351°
2026-04-17 00:55 33.67295 -78.93161 39 ft 0 kts 355°